Regional Weather Roundup
Issued by NWS

Home | Current Version | Previous Version | Text Only | Print | Product List | Glossary On
Versions: 1 2 3 4 5 6 7 8 9 10 11 12 13 14 15 16 17 18 19 20 21 22 23 24 25 26 27 28 29 30 31 32 33 34 35 36 37 38 39 40 41 42 43 44 45 46 47 48 49 50
000
ASUS43 KMKX 201920
RWRWI

WISCONSIN REGIONAL WEATHER ROUNDUP
NATIONAL WEATHER SERVICE MILWAUKEE/SULLIVAN WI
100 PM CST MON NOV 20 2017

NOTE: "FAIR" INDICATES FEW OR NO CLOUDS BELOW 12,000 FEET WITH NO
SIGNIFICANT WEATHER AND/OR OBSTRUCTIONS TO VISIBILITY.

WIZ001-002-006>008-014>016-023>028-202000-
NORTHWEST WISCONSIN

CITY           SKY/WX    TMP DP  RH WIND       PRES   REMARKS
SUPERIOR ARPT  MOSUNNY   35  29  78 E6        29.42F WCI  30
ASHLAND        MOSUNNY   37  28  70 CALM      29.45F
HAYWARD        CLOUDY    42  27  55 S9        29.45F
SIREN          CLOUDY    42  28  56 S12       29.45F
CUMBERLAND     CLOUDY    37  28  70 S9        29.47F WCI  31
RICE LAKE      CLOUDY    41  30  64 SE8       29.50F
CHETEK         CLOUDY    41  30  65 SE7       29.50F
LADYSMITH      CLOUDY    43  29  58 S8        29.50F
EAU CLAIRE     CLOUDY    46  28  49 S9        29.51F
MENOMONIE      MOSUNNY   46  29  51 S6        29.49F
NEW RICHMOND   CLOUDY    43  28  54 S9G16     29.49S
OSCEOLA        CLOUDY    42  29  59 S6        29.52R
$$

WIZ003>005-009-010-017-018-202000-
NORTH CENTRAL WISCONSIN

CITY           SKY/WX    TMP DP  RH WIND       PRES   REMARKS
MANITOWISH WTR CLOUDY    37  31  76 SE8       29.48F WCI  31
ARBOR VITAE    MOSUNNY   42  31  66 S7        29.50F
WOODRUFF       MOSUNNY   42  31  66 S7        29.50F
RHINELANDER    CLOUDY    44  28  53 S10       29.54F
EAGLE RIVER    MOSUNNY   41  28  60 S6        29.50F
LAND O LAKES   CLOUDY    38  32  79 S6        29.52F WCI  33
PHILLIPS       CLOUDY    42  29  59 S7        29.47F
TOMAHAWK       CLOUDY    41  29  61 SE3       29.53F
MEDFORD        CLOUDY    39  28  64 SE7       29.52F WCI  34
MERRILL        CLOUDY    41  28  60 S7        29.54F
$$

WIZ029-030-035-036-043>047-202000-
CENTRAL WISCONSIN

CITY           SKY/WX    TMP DP  RH WIND       PRES   REMARKS
WAUSAU         CLOUDY    43  28  55 S9        29.55F
MOSINEE        PTSUNNY   45  28  53 SE8       29.57F
MARSHFIELD     CLOUDY    46  28  49 SE13      29.54F
STEVENS POINT  CLOUDY    44  28  52 S10       29.59F
WAUPACA        CLOUDY    48  29  47 SE7       29.62F
WAUTOMA        SUNNY     47  28  47 S15         N/A
WISC RAPIDS    CLOUDY    49  29  46 SW13G22   29.59F
CAMP DOUGLAS   PTSUNNY   48  32  53 S12       29.58F
$$

WIZ011>013-019>022-031-037>040-048>050-202000-
NORTHEAST WISCONSIN

CITY           SKY/WX    TMP DP  RH WIND       PRES   REMARKS
ANTIGO         CLOUDY    38  29  69 S9        29.57F WCI  31
SHAWANO        CLOUDY    45  29  53 S5        29.61F
OCONTO         SUNNY     41  30  65 S8        29.64F
STURGEON BAY   CLOUDY    42  30  62 S13       29.65F
GREEN BAY      CLOUDY    42  32  67 S14       29.65F
MANITOWOC      SUNNY     44  31  60 SE13      29.68F
APPLETON       MOSUNNY   45  27  49 S15       29.63F
CLINTONVILLE   SUNNY     45  28  53 S10       29.62F
OSHKOSH        SUNNY     46  31  55 S12G21    29.65F
$$

WIZ032>034-041-042-053>061-202000-
SOUTHWEST WISCONSIN

CITY           SKY/WX    TMP DP  RH WIND       PRES   REMARKS
LA CROSSE      CLOUDY    50  30  46 S21G28    29.56F
SPARTA         CLOUDY    49  31  49 S13       29.57F
VIROQUA        CLOUDY    47  32  55 S17       29.58F
BOSCOBEL       SUNNY     53  30  41 S12       29.64F
PRAIRIE DU CHI CLOUDY    52  28  39 S9        29.63F
PLATTEVILLE    SUNNY     51  34  52 S18G25    29.68F
$$

WIZ056-057-062-063-064-067-068-202000-
SOUTH CENTRAL WISCONSIN

CITY           SKY/WX    TMP DP  RH WIND       PRES   REMARKS
REEDSBURG      SUNNY     48  31  51 S17       29.62F
BARABOO/DELLS  SUNNY     49  29  46 S15G22    29.62F
LONE ROCK      SUNNY     51  32  48 S15       29.65F
MINERAL POINT  SUNNY     50  32  50 S17G23    29.66F
MADISON        CLOUDY    47  31  53 S13G22    29.68F
MIDDLETON      CLOUDY    51  31  47 S14       29.67F
WATERTOWN      SUNNY     47  31  53 SW17      29.69F
MONROE         SUNNY     50  32  50 S17G23    29.70F
JANESVILLE     MOSUNNY   50  30  46 SW16G24   29.73F
$$

WIZ051-052-058>065-066-070>072-202000-
SOUTHEAST WISCONSIN

CITY           SKY/WX    TMP DP  RH WIND       PRES   REMARKS
MILWAUKEE      PTSUNNY   50  31  48 SW22      29.73F
WAUKESHA       SUNNY     46  28  49 SW12G20   29.73F
MILWAUKEE/TIMM SUNNY     48  27  43 SW14G23   29.73F
RACINE         CLOUDY    49  31  49 SW14G25   29.76F
BURLINGTON     CLOUDY    50  37  59 SW16G24   29.74F
KENOSHA        CLOUDY    50  30  46 SW15G28   29.75F
FOND DU LAC    SUNNY     46  30  53 S14G26    29.66F
SHEBOYGAN      SUNNY     49  32  52 S9        29.68F
WEST BEND      SUNNY     46  30  53 SW14      29.68F
JUNEAU         SUNNY     46  32  58 S17       29.70F
$$

LSZ147-162-202000-
LAKE SUPERIOR

STATION/POSITION TIME  TEMP    WIND        PRES    WAVE
                       AIR SEA DIR/SP/G            HT/PER
                 (UTC) (F)     (DEG/KT/KT) (MB)    (FT/S)
DEVILS ISLAND    1900   34     130/  4/  6  997.9F
SAXON HARBOR     1830   38      60/  2/  3  998.0F
$$

LMZ867-665-643>646-202000-
LAKE MICHIGAN

STATION/POSITION TIME  TEMP    WIND        PRES    WAVE
                       AIR SEA DIR/SP/G            HT/PER
                 (UTC) (F)     (DEG/KT/KT) (MB)    (FT/S)
N MID LAKE BUOY  1850   42 48  180/ 19/ 23 1005.4F   3/ 7
NORTHPORT PIER   1840   41     170/ 10/ 16 1004.4F
KEWAUNEE LAKESHO 1854   40     170/ 16/ 19 1004.1F
SHEBOYGAN LAKESH 1900   42     180/ 19/ 20 1005.3F
PORT WASHINGTON  1840   49     200/  8/ 15 1007.1F
MILWAUKEE LAKESH 1900   47     220/ 15/ 19   N/A
S MID LAKE BUOY  1850   46 49  220/ 19/ 23 1009.0F   6/ 6
KENOSHA   LAKESH 1900   49     220/ 15/ 20 1007.8
$$

TC  - TEMPERATURE IN CELSIUS
VSB - VISIBILITY IN STATUTE MILES
WCI - WIND CHILL INDEX
HX  - HEAT INDEX





USA.gov is the U.S. government's official web portal to all federal, state and local government web resources and services.